Flag for British Virgin Islands Weather past 2 weeks in Road Town, Tortola, British Virgin Islands

Now
77 °F

Scattered clouds.


Feels Like: 78 °F
Forecast: 76 / 79 °F
Wind: 6 mph from East

Location: Beef Island - Tortola

Current Time: Feb 28, 2015 at 9:10:48 AM

Latest Report: Feb 28, 2015 at 8:00 AM


Visibility: N/A

Pressure: 30.12 "Hg

Humidity: 83%

Dew point: 72 °F

Location of Road TownLocation

Historic Weather in Road Town — Graph

°F

Road Town temperature yesterday

Maximum temperature yesterday: 84 °F (at 12:00 PM)
Minimum temperature yesterday: 77 °F (at 8:00 PM)
Average temperature yesterday: 81 °F

Past Weeks' High & Low Weather Summary

 TemperatureHumidityPressure
High86 °F (Feb 15, 3:00 PM)94% (Feb 13, 6:00 PM)30.12 "Hg (Feb 13, 6:00 PM)
Low72 °F (Feb 26, 9:00 PM)62% (Feb 23, 1:00 PM)29.98 "Hg (Feb 14, 3:00 PM)
Average80 °F77%30.05 "Hg
* Reported Feb 13 8:00 AM — Feb 28 8:00 AM, Road Town, Weather by CustomWeather, © 2015

Note: Actual official high and low records may vary slightly from our data, if they occured in-between our weather recording intervals... More about our weather records

Advertising

Road Town weather history for previous 24 hours

 ConditionsComfort  
Time TempWeatherWind HumidityBarometerVisibility
8:00 AM
Sat, Feb 28
77 °FScattered clouds.6 mph83%30.12 "HgN/A
7:00 AM73 °FScattered showers. Partly sunny.9 mph89%30.09 "HgN/A
10:00 PM
Fri, Feb 27
77 °FThunderstorms. Overcast.6 mph79%30.09 "HgN/A
9:00 PM77 °FPassing clouds.14 mph79%30.09 "HgN/A
8:00 PM77 °FPassing clouds.16 mph79%30.07 "HgN/A
7:00 PM79 °FPassing clouds.13 mph74%30.07 "HgN/A
6:00 PM79 °FScattered clouds.13 mph74%30.04 "HgN/A
5:00 PM82 °FScattered clouds.15 mph66%30.04 "HgN/A
4:00 PM81 °FBroken clouds.9 mph74%30.04 "HgN/A
3:00 PM84 °FScattered clouds.14 mph66%30.04 "HgN/A
2:00 PM82 °FPassing clouds.10 mph70%30.07 "HgN/A
1:00 PM82 °FScattered clouds.17 mph74%30.07 "HgN/A
12:00 PM84 °FScattered clouds.13 mph70%30.09 "HgN/A
11:00 AM82 °FScattered showers. Scattered clouds.10 mph74%30.12 "Hg5 mi
10:00 AM82 °FScattered clouds.13 mph66%30.12 "HgN/A
9:00 AM81 °FScattered clouds.16 mph70%30.09 "HgN/A
Weather by CustomWeather, © 2015

See weather overviewHow to use our weather pages